Regional Weather Roundup
Issued by NWS

Home | Current Version | Previous Version | Graphics & Text | Print | Product List | Glossary Off
Versions: 1 2 3 4 5 6 7 8 9 10 11 12 13 14 15 16 17 18 19 20 21 22 23 24 25 26 27 28 29 30 31 32 33 34 35 36 37 38 39 40 41 42 43 44 45 46 47 48 49 50

155
ASUS43 KDMX 231501
RWRIA

WEATHER ROUNDUP FOR IOWA
NATIONAL WEATHER SERVICE DES MOINES IA
900 AM CST FRI FEB 23 2018

NOTE: "FAIR" INDICATES FEW OR NO CLOUDS BELOW 12,000 FEET WITH NO
SIGNIFICANT WEATHER AND/OR OBSTRUCTIONS TO VISIBILITY.

* - THESE STATIONS ARE NOT NWS STATIONS...THUS NOT UNDER NWS
QUALITY CONTROL.  THEY ALSO DO NOT REPORT WEATHER SUCH
AS PRECIPITATION OR FOG.

IAZ001>003-012>014-020>022-031>034-043>046-231600-
   NORTHWEST IOWA

CITY           SKY/WX    TMP DP  RH WIND       PRES   REMARKS
CARROLL *      CLOUDY    23  21  93 W10       30.23R WCI  12
CHEROKEE *     CLOUDY    19  19  99 NW3       30.24R
DENISON *      CLOUDY    21  19  93 W9        30.24F FOG     WCI  11
LE MARS *      LGT SNOW  19  18  93 NW10G17   30.25R WCI   8
ORANGE CITY *  CLOUDY    19  18  93 NW12      30.21R FOG     WCI   7
SHELDON *      CLOUDY    19  19 100 NW9       30.19R WCI   9
SIOUX CITY     CLOUDY    17  15  92 NW14      30.27R FOG     WCI   3
SPENCER        CLOUDY    21  17  84 NW12      30.20R WCI   9
STORM LAKE *   FOG       19  19 100 W13       30.21R VSB 1/2 WCI   7
$$

IAZ055>058-069>071-079>083-090>094-231600-
   SOUTHWEST IOWA

CITY           SKY/WX    TMP DP  RH WIND       PRES   REMARKS
ATLANTIC *     SUNNY     27  25  93 NW10      30.23S WCI  17
AUDUBON *      SUNNY     25  21  86 NW8       30.22S WCI  16
CLARINDA *     SUNNY     28  30 100 W5        30.30R WCI  23
COUNCIL BLFS * SUNNY     25  25 100 NW9       30.25R WCI  15
CRESTON *      SUNNY     28  25  86 W8        30.26R WCI  20
HARLAN  *      CLOUDY    23  23 100 NW9       30.27S WCI  13
LAMONI         SUNNY     31  27  85 NW10      30.26R WCI  22
RED OAK *      CLOUDY    28  27  93 VRB3      30.27R FOG
SHENANDOAH *   SUNNY     28  27  93 SW5       30.28R WCI  23
$$

IAZ047>049-059>061-072>074-084-231600-
   CENTRAL IOWA

CITY           SKY/WX    TMP DP  RH WIND       PRES   REMARKS
AMES           SUNNY     28  23  81 NW16      30.21S WCI  16
ANKENY *       MOSUNNY   30  25  80 W13       30.25R WCI  20
BOONE *        MOSUNNY   27  25  93 MISG      30.20S FOG
CHARITON *     MOSUNNY   32  28  86 W14       30.24R WCI  22
DES MOINES     MOSUNNY   31  23  72 NW12      30.24R WCI  22
GRINNELL*      PTSUNNY   31  27  85 NW14      30.22R WCI  21
KNOXVILLE *    PTSUNNY   32  27  80 NW13      30.23R WCI  22
MARSHALLTOWN   MOSUNNY   29  25  85 W14       30.20R WCI  18
NEWTON *       MOSUNNY   30  27  86 NW15      30.22R WCI  19
PELLA *        MOSUNNY   32  32  99 W10G18    30.25R WCI  24
$$

IAZ004>006-015-016-023>025-035-036-231600-
   NORTH CENTRAL IOWA

CITY           SKY/WX    TMP DP  RH WIND       PRES   REMARKS
CLARION *      CLOUDY    23  23 100 W14G22    30.20R WCI  11
ESTHERVILLE    PTSUNNY   18  15  88 W16       30.18R WCI   3
FORT DODGE *   CLOUDY    22  19  89 NW8       30.23R FOG     WCI  12
MASON CITY     SUNNY     25  21  85 W14       30.18R WCI  13
FOREST CITY *  FAIR      27  23  86 W10       30.19R WCI  17
WEBSTER CITY * PTSUNNY   23  19  86 NW15      30.20R WCI  10
IOWA FALLS *   FAIR      28  25  89 W14       30.21R WCI  16
$$

IAZ007>011-017>019-026>030-037>042-050>054-066-231600-
   NORTHEAST IOWA

CITY           SKY/WX    TMP DP  RH WIND       PRES   REMARKS
CEDAR RAPIDS   CLOUDY    34  32  92 W14       30.18R WCI  25
CHARLES CITY * CLOUDY    28  28 100 W14       30.17R WCI  17
CLINTON *      CLOUDY    34  32  92 W21       30.19R WCI  22
DECORAH *      FAIR      30  28  93 W9G16     30.12R WCI  22
DUBUQUE        CLOUDY    32  29  88 W18       30.15R WCI  20
MONTICELLO *   CLOUDY    34  32  93 W12       30.17R WCI  25
OELWEIN *      PTSUNNY   30  30 100 MISG      30.16R
WATERLOO       FAIR      30  24  78 NW16G22   30.18R WCI  19
$$

IAZ064-065-067-068-078-231600-
   EAST CENTRAL IOWA

CITY           SKY/WX    TMP DP  RH WIND       PRES   REMARKS
DAVENPORT      CLOUDY    35  32  88 W14       30.20R WCI  26
IOWA CITY      CLOUDY    36  31  82 W7        30.23R WCI  30
MT. PLEASANT * CLOUDY    32  32 100 W16G22    30.24R WCI  21
MUSCATINE *    CLOUDY    36  32  87 W14       30.22S WCI  27
QUAD CITIES    CLOUDY    36  34  93 W13       30.18R WCI  27
$$

IAZ062-063-075>077-085>089-095>099-231600-
   SOUTHEAST IOWA

CITY           SKY/WX    TMP DP  RH WIND       PRES   REMARKS
BURLINGTON     CLOUDY    34  32  92 NW13      30.22R WCI  25
FAIRFIELD *    CLOUDY    34  32  93 W10       30.23R WCI  26
FORT MADISON * CLOUDY    34  34 100 W10       30.25R WCI  26
KEOKUK *       CLOUDY    34  34 100 W10       30.25R WCI  26
OSKALOOSA *    PTSUNNY   32  30  93 W9        30.24R WCI  24
OTTUMWA        CLOUDY    34  34 100 W9        30.24R WCI  27
WASHINGTON *   CLOUDY    36  36 100 W10       30.24R WCI  28
$$

ABBREVIATIONS USED IN REMARKS
   TC - TEMPERATURES IN CELSIUS
  WCI - WIND CHILL INDEX
   HX - HEAT INDEX
  VSB - VISIBILITY
$$





USA.gov is the U.S. government's official web portal to all federal, state and local government web resources and services.